Weather History for Lawrence, KS

Change the Weather History Date:

Saturday, June 15, 2013

  Actual Average Record
Temperature  
Mean Temperature 79 °F 74 °F  
Max Temperature 91 °F 85 °F 91 °F (2006)
Min Temperature 66 °F 63 °F 51 °F (2002)
Degree Days  
Heating Degree Days 0 0  
Month to date heating degree days 13 6  
Since 1 June heating degree days 13 6  
Since 1 July heating degree days 5283 5090  
Cooling Degree Days 14 9  
Month to date cooling degree days 94 114  
Year to date cooling degree days 221 233  
Since 1 June cooling degree days 94 114  
Growing Degree Days 29 (Base 50)    
Moisture  
Dew Point 69 °F    
Average Humidity 70    
Maximum Humidity 90    
Minimum Humidity 50    
Precipitation  
Precipitation 0.15 in 0.19 in 0.78 in (2014)
Month to date precipitation 0.72 3.11  
Year to date precipitation 15.03 17.00  
Sea Level Pressure  
Sea Level Pressure 29.93 in    
Wind  
Wind Speed 8 mph (SSE)    
Max Wind Speed 32 mph    
Max Gust Speed 43 mph    
Visibility 9 miles    
Events Rain , Thunderstorm    
T = Trace of Precipitation, MM = Missing Value Source: NWS Daily Summary

Daily Weather History Graph

Daily Weather History Graph

Search for Another Location

Airport:

Trip Planner

Search our weather history database for the weather conditions in past years. The results will help you decide how hot, cold, wet, or windy it might be!

Date:

Astronomy

Jun. 15, 2013 Rise Set
Actual Time 5:54 AM CDT 8:48 PM CDT
Civil Twilight 5:22 AM CDT 9:20 PM CDT
Nautical Twilight 4:42 AM CDT 10:00 PM CDT
Astronomical Twilight 3:55 AM CDT 10:47 PM CDT
Moon 12:27 PM CDT (6/15) 12:27 AM CDT (6/15)
Length of Visible Light 15h 57m
Length of Day
14h 53m
Waxing Crescent, 40% of the Moon is Illuminated
Jun 15
Waxing Crescent
Jun 16
First Quarter
Jun 23
Full
Jun 29
Last Quarter
Jul 8
New

Hourly Weather History & Observations

Time (CDT) Temp. Heat Index Dew Point Humidity Pressure Visibility Wind Dir Wind Speed Gust Speed Precip Events Conditions
12:52 AM 79.0 °F - 73.0 °F 82% 29.89 in 10.0 mi ESE 6.9 mph - N/A   Clear
1:52 AM 79.0 °F - 72.0 °F 79% 29.88 in 10.0 mi SE 6.9 mph - N/A   Clear
2:52 AM 77.0 °F - 72.0 °F 84% 29.90 in 10.0 mi ENE 5.8 mph - N/A   Clear
3:52 AM 78.1 °F - 72.0 °F 81% 29.91 in 10.0 mi ENE 8.1 mph - N/A   Clear
4:52 AM 78.1 °F - 72.0 °F 81% 29.91 in 10.0 mi SSE 9.2 mph - N/A   Clear
5:52 AM 77.0 °F - 72.0 °F 84% 29.92 in 10.0 mi SSE 6.9 mph - N/A   Clear
6:52 AM 77.0 °F - 72.0 °F 84% 29.94 in 9.0 mi SE 8.1 mph - N/A   Clear
7:52 AM 78.1 °F - 73.0 °F 84% 29.93 in 9.0 mi SSE 9.2 mph - N/A   Clear
8:52 AM 81.0 °F 85.8 °F 73.0 °F 77% 29.94 in 10.0 mi SSW 8.1 mph - N/A   Clear
9:52 AM 84.0 °F 90.2 °F 73.0 °F 69% 29.93 in 10.0 mi SSW 12.7 mph - N/A   Clear
10:52 AM 84.9 °F 89.4 °F 70.0 °F 61% 29.92 in 10.0 mi SW 6.9 mph - N/A   Clear
11:52 AM 87.1 °F 90.6 °F 68.0 °F 53% 29.95 in 10.0 mi SW 10.4 mph - N/A   Clear
12:52 PM 88.0 °F 92.1 °F 69.1 °F 53% 29.93 in 10.0 mi SSW 8.1 mph - N/A   Clear
1:52 PM 89.1 °F 92.9 °F 68.0 °F 50% 29.90 in 10.0 mi WNW 5.8 mph - N/A   Scattered Clouds
2:52 PM 88.0 °F 91.4 °F 68.0 °F 51% 29.89 in 10.0 mi NW 5.8 mph - N/A   Mostly Cloudy
3:43 PM 84.2 °F 87.3 °F 68.0 °F 58% 29.92 in 10.0 mi North 4.6 mph - N/A Thunderstorm Mostly Cloudy
3:52 PM 84.9 °F 88.2 °F 68.0 °F 57% 29.92 in 10.0 mi Calm Calm - N/A Thunderstorm Thunderstorm
4:03 PM 71.6 °F - 66.2 °F 83% 29.97 in 4.0 mi South 20.7 mph 42.6 mph 0.02 in Rain , Thunderstorm Thunderstorms and Rain
4:10 PM 69.8 °F - 66.2 °F 88% 29.97 in 2.0 mi South 23.0 mph 35.7 mph 0.07 in Rain , Thunderstorm Thunderstorms and Rain
4:24 PM 69.8 °F - 66.2 °F 88% 29.99 in 6.0 mi South 15.0 mph 25.3 mph 0.10 in Rain , Thunderstorm Light Thunderstorms and Rain
4:52 PM 71.1 °F - 66.0 °F 84% 29.96 in 10.0 mi SSW 5.8 mph - 0.13 in Rain , Thunderstorm Light Rain
5:01 PM 71.6 °F - 66.2 °F 83% 29.99 in 10.0 mi SW 4.6 mph - 0.00 in   Overcast
5:08 PM 71.6 °F - 66.2 °F 83% 30.00 in 10.0 mi SW 5.8 mph - 0.00 in Thunderstorm Overcast
5:24 PM 71.6 °F - 66.2 °F 83% 29.99 in 9.0 mi East 4.6 mph - 0.01 in Rain , Thunderstorm Light Rain
5:45 PM 71.6 °F - 66.2 °F 83% 29.97 in 10.0 mi ESE 10.4 mph - 0.02 in   Mostly Cloudy
5:52 PM 71.1 °F - 66.9 °F 87% 29.95 in 10.0 mi ESE 10.4 mph - 0.02 in Rain Light Rain
6:52 PM 72.0 °F - 66.9 °F 84% 29.89 in 10.0 mi SE 16.1 mph 20.7 mph 0.00 in   Mostly Cloudy
7:52 PM 72.0 °F - 66.9 °F 84% 29.88 in 10.0 mi SSE 6.9 mph - N/A   Mostly Cloudy
8:52 PM 70.0 °F - 64.9 °F 84% 29.88 in 10.0 mi SSE 12.7 mph - N/A   Partly Cloudy
9:52 PM 70.0 °F - 66.0 °F 87% 29.91 in 10.0 mi SSE 8.1 mph - N/A   Mostly Cloudy
10:52 PM 70.0 °F - 66.0 °F 87% 29.95 in 10.0 mi NE 4.6 mph - N/A   Mostly Cloudy
11:52 PM 69.1 °F - 64.9 °F 87% 29.94 in 10.0 mi East 4.6 mph - N/A   Scattered Clouds